Back to catalog

COSMOS 1066 DEB

AlivePO
NORAD 45656·DEBRIS·🇷🇺 Russia

Launched Dec 23, 1978 from Plesetsk Cosmodrome

Loading…

Next Passes (next 24 hours)

TLE

FreshSource: Space-Track

Epoch: Sep 14, 2026, 09:17 UTC

1 45656U 78121D   26257.38708327  .00003924  00000-0  12953-2 0  9995
2 45656  81.2299 134.5842 0027854  96.9850 263.4506 14.37699590331847

Track COSMOS 1066 DEB in real time with AllMySat

Download on the App Store